Location: McFarlands Corners
(41.4117°N, 81.3382°W)
Time: 09:33:26
(UTC+00:00)

Courier 1B Rocket - Pass Details

Date: 21 February 2026
Orbit: 920 x 1201 km, 28.2° (Epoch: 10 March)

Event Time Altitude Azimuth Distance (km) Brightness Sun altitude
Rises 21:57:43 0° 210° (SSW) 3,589 8.9 11.4°
Reaches altitude 10° 22:02:07 10° 182° (S) 2,614 7.7 10.6°
Maximum altitude 22:04:34 12° 159° (SSE) 2,432 7.2 10.2°
Drops below altitude 10° 22:07:00 10° 135° (SE) 2,601 7.1 9.8°
Sets 22:11:21 0° 107° (ESE) 3,552 7.5 9.0°
